| time (UTC) | temp C | wind direction | speed KPH | gust KPH | rain 1hr cm | rain 24hr cm | rain mn cm | humidity % | barometer mb |
| 20260507070017 | 17 | 208 | 6.4 | 12.9 | 0.00 | 0.00 | 0.00 | 76 | 1012.7 |
| 20260507065034 | 17 | 207 | 8.0 | 16.1 | 0.00 | 0.00 | 0.00 | 76 | 1012.8 |
| 20260507064030 | 17 | 211 | 4.8 | 16.1 | 0.00 | 0.00 | 0.00 | 76 | 1012.7 |
| 20260507063026 | 17 | 193 | 6.4 | 16.1 | 0.00 | 0.00 | 0.00 | 77 | 1012.9 |
| 20260507062023 | 17 | 193 | 6.4 | 16.1 | 0.00 | 0.00 | 0.00 | 76 | 1012.8 |
| 20260507061020 | 17 | 181 | 6.4 | 12.9 | 0.00 | 0.00 | 0.00 | 77 | 1012.7 |
| 20260507060036 | 17 | 169 | 3.2 | 12.9 | 0.00 | 0.00 | 0.00 | 78 | 1012.6 |
| 20260507055033 | 16 | 185 | 3.2 | 16.1 | 0.00 | 0.00 | 0.00 | 79 | 1012.6 |
| 20260507054029 | 16 | 153 | 3.2 | 8.0 | 0.00 | 0.00 | 0.00 | 80 | 1012.5 |
| 20260507053025 | 16 | 179 | 3.2 | 12.9 | 0.00 | 0.00 | 0.00 | 81 | 1012.4 |
| 20260507052022 | 16 | 202 | 0.0 | 3.2 | 0.00 | 0.00 | 0.00 | 82 | 1012.2 |
| 20260507051018 | 16 | 201 | 0.0 | 3.2 | 0.00 | 0.00 | 0.00 | 82 | 1012.1 |
| 20260507050035 | 15 | 172 | 0.0 | 3.2 | 0.00 | 0.00 | 0.00 | 83 | 1012.1 |
| 20260507045031 | 15 | 169 | 0.0 | 3.2 | 0.00 | 0.00 | 0.00 | 84 | 1012.0 |
| 20260507044028 | 15 | 114 | 0.0 | 3.2 | 0.00 | 0.00 | 0.00 | 84 | 1012.0 |
| 20260507043104 | 15 | 145 | 1.6 | 12.9 | 0.00 | 0.00 | 0.00 | 84 | 1011.9 |
| 20260507042101 | 15 | 179 | 0.0 | 3.2 | 0.00 | 0.00 | 0.00 | 84 | 1011.6 |
| 20260507041017 | 15 | 139 | 0.0 | 3.2 | 0.00 | 0.00 | 0.00 | 85 | 1011.4 |
| 20260507040033 | 14 | 149 | 0.0 | 3.2 | 0.00 | 0.00 | 0.00 | 85 | 1011.3 |
| 20260507035049 | 14 | 0.0 | 0.0 | 0.00 | 0.00 | 0.00 | 85 | 1011.3 | |
| 20260507034046 | 14 | 0.0 | 0.0 | 0.00 | 0.00 | 0.00 | 85 | 1011.3 | |
| 20260507033022 | 14 | 0.0 | 3.2 | 0.00 | 0.00 | 0.00 | 84 | 1011.2 | |
| 20260507032018 | 14 | 117 | 0.0 | 3.2 | 0.00 | 0.00 | 0.00 | 84 | 1011.1 |
| 20260507031035 | 15 | 0.0 | 3.2 | 0.00 | 0.00 | 0.00 | 83 | 1011.1 | |
| 20260507030031 | 15 | 205 | 0.0 | 3.2 | 0.00 | 0.00 | 0.00 | 83 | 1011.0 |
| 20260507025028 | 15 | 170 | 0.0 | 3.2 | 0.00 | 0.00 | 0.00 | 83 | 1011.2 |
| 20260507024024 | 15 | 171 | 0.0 | 3.2 | 0.00 | 0.00 | 0.00 | 80 | 1011.1 |
| 20260507023020 | 15 | 0.0 | 0.0 | 0.00 | 0.00 | 0.00 | 80 | 1011.0 | |
| 20260507022017 | 15 | 0.0 | 0.0 | 0.00 | 0.00 | 0.00 | 79 | 1010.9 | |
| 20260507021033 | 15 | 277 | 0.0 | 3.2 | 0.00 | 0.00 | 0.00 | 79 | 1010.8 |
| 20260507020049 | 15 | 307 | 0.0 | 3.2 | 0.00 | 0.00 | 0.00 | 79 | 1010.8 |
| 20260507015025 | 15 | 0.0 | 0.0 | 0.00 | 0.00 | 0.00 | 79 | 1010.9 | |
| 20260507014022 | 15 | 0.0 | 3.2 | 0.00 | 0.00 | 0.00 | 79 | 1010.9 | |
| 20260507013018 | 15 | 0.0 | 0.0 | 0.00 | 0.00 | 0.00 | 79 | 1011.0 | |
| 20260507012035 | 15 | 0.0 | 0.0 | 0.00 | 0.00 | 0.00 | 78 | 1010.9 | |
| 20260507011031 | 16 | 0.0 | 0.0 | 0.00 | 0.00 | 0.00 | 77 | 1010.9 | |
| 20260507010027 | 16 | 0.0 | 0.0 | 0.00 | 0.00 | 0.00 | 77 | 1010.7 | |
| 20260507005023 | 16 | 0.0 | 0.0 | 0.00 | 0.00 | 0.00 | 76 | 1010.5 | |
| 20260507004019 | 16 | 0.0 | 0.0 | 0.00 | 0.00 | 0.00 | 76 | 1010.7 | |
| 20260507003035 | 16 | 0.0 | 0.0 | 0.00 | 0.00 | 0.00 | 76 | 1010.8 | |
| 20260507002032 | 16 | 250 | 0.0 | 3.2 | 0.00 | 0.00 | 0.00 | 75 | 1010.9 |
| 20260507001048 | 16 | 274 | 1.6 | 8.0 | 0.00 | 0.00 | 0.00 | 75 | 1010.8 |
| 20260507000024 | 16 | 250 | 0.0 | 3.2 | 0.00 | 0.00 | 0.00 | 75 | 1011.0 |
| 20260506235021 | 16 | 246 | 1.6 | 8.0 | 0.00 | 0.00 | 0.00 | 75 | 1011.2 |
| 20260506234017 | 16 | 235 | 0.0 | 8.0 | 0.00 | 0.00 | 0.00 | 75 | 1011.2 |
| 20260506233054 | 15 | 236 | 3.2 | 16.1 | 0.00 | 0.00 | 0.00 | 76 | 1011.2 |
| 20260506232030 | 14 | 198 | 1.6 | 8.0 | 0.00 | 0.00 | 0.00 | 76 | 1011.3 |
| 20260506231026 | 15 | 198 | 1.6 | 3.2 | 0.00 | 0.00 | 0.00 | 75 | 1011.3 |
| 20260506230023 | 15 | 0.0 | 0.0 | 0.00 | 0.00 | 0.00 | 75 | 1011.2 | |
| 20260506225019 | 15 | 0.0 | 3.2 | 0.00 | 0.00 | 0.00 | 75 | 1011.1 | |
| 20260506224016 | 15 | 206 | 0.0 | 3.2 | 0.00 | 0.00 | 0.00 | 75 | 1011.0 |
| 20260506223032 | 15 | 0.0 | 0.0 | 0.00 | 0.00 | 0.00 | 75 | 1010.7 | |
| 20260506222028 | 15 | 0.0 | 0.0 | 0.00 | 0.00 | 0.00 | 74 | 1010.7 | |
| 20260506221025 | 15 | 0.0 | 0.0 | 0.00 | 0.00 | 0.00 | 72 | 1010.6 | |
| 20260506220021 | 16 | 0.0 | 0.0 | 0.00 | 0.00 | 0.00 | 70 | 1010.6 | |
| 20260506215018 | 17 | 241 | 3.2 | 8.0 | 0.00 | 0.00 | 0.00 | 68 | 1010.5 |
| 20260506214035 | 17 | 251 | 4.8 | 8.0 | 0.00 | 0.00 | 0.00 | 68 | 1010.4 |
| 20260506213033 | 17 | 259 | 6.4 | 12.9 | 0.00 | 0.00 | 0.00 | 68 | 1010.4 |
| 20260506212028 | 17 | 259 | 3.2 | 8.0 | 0.00 | 0.00 | 0.00 | 67 | 1010.4 |
| 20260506211024 | 18 | 262 | 4.8 | 12.9 | 0.00 | 0.00 | 0.00 | 65 | 1010.3 |
| 20260506210021 | 18 | 252 | 6.4 | 16.1 | 0.00 | 0.00 | 0.00 | 64 | 1010.3 |
| 20260506205018 | 16 | 246 | 9.7 | 20.9 | 0.00 | 0.00 | 0.00 | 66 | 1010.4 |
| 20260506204034 | 17 | 245 | 0.0 | 3.2 | 0.00 | 0.00 | 0.00 | 65 | 1010.0 |
| 20260506203030 | 17 | 0.0 | 0.0 | 0.00 | 0.00 | 0.00 | 64 | 1009.9 | |
| 20260506202026 | 17 | 0.0 | 0.0 | 0.00 | 0.00 | 0.00 | 64 | 1009.8 | |
| 20260506201023 | 17 | 156 | 0.0 | 3.2 | 0.00 | 0.00 | 0.00 | 63 | 1010.0 |
| 20260506200019 | 17 | 0.0 | 3.2 | 0.00 | 0.00 | 0.00 | 63 | 1009.9 | |
| 20260506195015 | 17 | 0.0 | 3.2 | 0.00 | 0.00 | 0.00 | 63 | 1009.9 | |
| 20260506194032 | 18 | 164 | 0.0 | 3.2 | 0.00 | 0.00 | 0.00 | 63 | 1010.0 |
| 20260506193029 | 18 | 120 | 0.0 | 3.2 | 0.00 | 0.00 | 0.00 | 62 | 1009.9 |
| 20260506192025 | 18 | 146 | 0.0 | 3.2 | 0.00 | 0.00 | 0.00 | 61 | 1009.7 |
| 20260506191021 | 18 | 165 | 0.0 | 3.2 | 0.00 | 0.00 | 0.00 | 60 | 1009.6 |
| 20260506190018 | 19 | 0.0 | 3.2 | 0.00 | 0.00 | 0.00 | 58 | 1009.6 | |
| 20260506185034 | 19 | 0.0 | 0.0 | 0.00 | 0.00 | 0.00 | 58 | 1009.5 | |
| 20260506184030 | 19 | 0.0 | 0.0 | 0.00 | 0.00 | 0.00 | 58 | 1009.5 | |
| 20260506183027 | 20 | 172 | 0.0 | 3.2 | 0.00 | 0.00 | 0.00 | 56 | 1009.4 |
| 20260506182023 | 19 | 0.0 | 3.2 | 0.00 | 0.00 | 0.00 | 58 | 1009.4 | |
| 20260506181018 | 20 | 0.0 | 3.2 | 0.00 | 0.00 | 0.00 | 57 | 1009.3 | |
| 20260506180035 | 20 | 0.0 | 0.0 | 0.00 | 0.00 | 0.00 | 54 | 1009.3 | |
| 20260506175031 | 21 | 197 | 0.0 | 3.2 | 0.00 | 0.00 | 0.00 | 52 | 1009.3 |
| 20260506174128 | 22 | 0.0 | 3.2 | 0.00 | 0.00 | 0.00 | 51 | 1009.2 | |
| 20260506173023 | 22 | 203 | 0.0 | 3.2 | 0.00 | 0.00 | 0.00 | 50 | 1009.3 |
| 20260506172019 | 22 | 0.0 | 0.0 | 0.00 | 0.00 | 0.00 | 49 | 1009.3 | |
| 20260506171035 | 23 | 216 | 0.0 | 3.2 | 0.00 | 0.00 | 0.00 | 47 | 1009.3 |
| 20260506170030 | 23 | 210 | 0.0 | 8.0 | 0.00 | 0.00 | 0.00 | 46 | 1009.2 |
| 20260506165026 | 24 | 221 | 0.0 | 3.2 | 0.00 | 0.00 | 0.00 | 45 | 1009.2 |
| 20260506164022 | 24 | 219 | 3.2 | 20.9 | 0.00 | 0.00 | 0.00 | 43 | 1009.2 |
| 20260506163018 | 25 | 232 | 3.2 | 12.9 | 0.00 | 0.00 | 0.00 | 43 | 1009.2 |
| 20260506162053 | 25 | 224 | 3.2 | 16.1 | 0.00 | 0.00 | 0.00 | 41 | 1009.1 |
| 20260506161029 | 25 | 208 | 8.0 | 20.9 | 0.00 | 0.00 | 0.00 | 41 | 1009.2 |
| 20260506160025 | 25 | 196 | 6.4 | 16.1 | 0.00 | 0.00 | 0.00 | 42 | 1009.4 |
| 20260506155041 | 25 | 184 | 4.8 | 16.1 | 0.00 | 0.00 | 0.00 | 41 | 1009.4 |
| 20260506154037 | 26 | 197 | 8.0 | 24.1 | 0.00 | 0.00 | 0.00 | 40 | 1009.4 |
| 20260506153032 | 26 | 206 | 6.4 | 16.1 | 0.00 | 0.00 | 0.00 | 39 | 1009.3 |
| 20260506152028 | 26 | 210 | 8.0 | 24.1 | 0.00 | 0.00 | 0.00 | 40 | 1009.4 |
| 20260506151023 | 26 | 199 | 11.3 | 32.2 | 0.00 | 0.00 | 0.00 | 41 | 1009.4 |
| 20260506150019 | 26 | 207 | 8.0 | 20.9 | 0.00 | 0.00 | 0.00 | 40 | 1009.5 |
| 20260506145055 | 27 | 227 | 6.4 | 16.1 | 0.00 | 0.00 | 0.00 | 38 | 1009.6 |
| 20260506144031 | 27 | 216 | 8.0 | 27.4 | 0.00 | 0.00 | 0.00 | 39 | 1009.6 |
| 20260506143026 | 26 | 201 | 11.3 | 24.1 | 0.00 | 0.00 | 0.00 | 41 | 1009.6 |
| 20260506142022 | 26 | 203 | 14.5 | 24.1 | 0.00 | 0.00 | 0.00 | 41 | 1009.8 |
| 20260506141018 | 26 | 196 | 12.9 | 24.1 | 0.00 | 0.00 | 0.00 | 40 | 1010.0 |
| 20260506140034 | 26 | 205 | 11.3 | 27.4 | 0.00 | 0.00 | 0.00 | 41 | 1010.0 |
| 20260506135029 | 26 | 191 | 11.3 | 24.1 | 0.00 | 0.00 | 0.00 | 42 | 1010.0 |
| 20260506134025 | 25 | 200 | 9.7 | 24.1 | 0.00 | 0.00 | 0.00 | 42 | 1010.1 |
| 20260506133020 | 26 | 200 | 12.9 | 27.4 | 0.00 | 0.00 | 0.00 | 41 | 1010.3 |
| 20260506132017 | 25 | 203 | 9.7 | 24.1 | 0.00 | 0.00 | 0.00 | 41 | 1010.3 |
| 20260506131033 | 25 | 218 | 8.0 | 32.2 | 0.00 | 0.00 | 0.00 | 42 | 1010.4 |
| 20260506130028 | 25 | 208 | 11.3 | 27.4 | 0.00 | 0.00 | 0.00 | 43 | 1010.7 |
| 20260506125044 | 25 | 209 | 11.3 | 24.1 | 0.00 | 0.00 | 0.00 | 43 | 1010.7 |
| 20260506124021 | 25 | 216 | 9.7 | 24.1 | 0.00 | 0.00 | 0.00 | 43 | 1010.6 |
| 20260506123017 | 25 | 210 | 12.9 | 32.2 | 0.00 | 0.00 | 0.00 | 44 | 1010.8 |
| 20260506122033 | 25 | 210 | 11.3 | 27.4 | 0.00 | 0.00 | 0.00 | 44 | 1010.7 |
| 20260506121029 | 25 | 206 | 11.3 | 40.2 | 0.00 | 0.00 | 0.00 | 43 | 1010.9 |
| 20260506120025 | 25 | 212 | 8.0 | 27.4 | 0.00 | 0.00 | 0.00 | 44 | 1010.9 |
| 20260506115021 | 24 | 208 | 9.7 | 37.0 | 0.00 | 0.00 | 0.00 | 44 | 1011.0 |
| 20260506114017 | 24 | 191 | 8.0 | 16.1 | 0.00 | 0.00 | 0.00 | 45 | 1011.0 |
| 20260506113034 | 25 | 200 | 11.3 | 27.4 | 0.00 | 0.00 | 0.00 | 44 | 1010.9 |
| 20260506112049 | 24 | 199 | 9.7 | 24.1 | 0.00 | 0.00 | 0.00 | 45 | 1011.2 |
| 20260506111045 | 24 | 202 | 17.7 | 45.1 | 0.00 | 0.00 | 0.00 | 44 | 1011.1 |
| 20260506110021 | 24 | 218 | 9.7 | 20.9 | 0.00 | 0.00 | 0.00 | 44 | 1011.2 |
| 20260506105018 | 24 | 201 | 9.7 | 27.4 | 0.00 | 0.00 | 0.00 | 44 | 1011.3 |
| 20260506104053 | 25 | 213 | 12.9 | 27.4 | 0.00 | 0.00 | 0.00 | 44 | 1011.3 |
| 20260506103028 | 23 | 198 | 11.3 | 24.1 | 0.00 | 0.00 | 0.00 | 45 | 1011.3 |
| 20260506102044 | 24 | 217 | 12.9 | 27.4 | 0.00 | 0.00 | 0.00 | 44 | 1011.4 |
| 20260506101020 | 23 | 208 | 12.9 | 27.4 | 0.00 | 0.00 | 0.00 | 45 | 1011.5 |
| 20260506100016 | 23 | 206 | 12.9 | 27.4 | 0.00 | 0.00 | 0.00 | 45 | 1011.6 |
| 20260506095031 | 23 | 222 | 8.0 | 20.9 | 0.00 | 0.00 | 0.00 | 46 | 1011.5 |
| 20260506094027 | 23 | 209 | 9.7 | 27.4 | 0.00 | 0.00 | 0.00 | 47 | 1011.6 |
| 20260506093023 | 23 | 212 | 11.3 | 27.4 | 0.00 | 0.00 | 0.00 | 47 | 1011.7 |
| 20260506092018 | 23 | 218 | 8.0 | 24.1 | 0.00 | 0.00 | 0.00 | 47 | 1011.7 |
| 20260506091055 | 23 | 220 | 8.0 | 24.1 | 0.00 | 0.00 | 0.00 | 46 | 1011.6 |
| 20260506090029 | 23 | 211 | 14.5 | 37.0 | 0.00 | 0.00 | 0.00 | 46 | 1011.6 |
| 20260506085026 | 22 | 206 | 12.9 | 27.4 | 0.00 | 0.00 | 0.00 | 48 | 1011.5 |
| 20260506084121 | 22 | 207 | 12.9 | 32.2 | 0.00 | 0.00 | 0.00 | 48 | 1011.6 |
| 20260506083017 | 22 | 228 | 9.7 | 27.4 | 0.00 | 0.00 | 0.00 | 48 | 1011.6 |
| 20260506082032 | 22 | 219 | 11.3 | 27.4 | 0.00 | 0.00 | 0.00 | 49 | 1011.7 |
| 20260506081028 | 22 | 234 | 11.3 | 27.4 | 0.00 | 0.00 | 0.00 | 50 | 1011.7 |
| 20260506073032 | 21 | 216 | 9.7 | 24.1 | 0.00 | 0.00 | 0.00 | 55 | 1011.9 |
| 20260506072028 | 20 | 208 | 8.0 | 20.9 | 0.00 | 0.00 | 0.00 | 56 | 1011.9 |
| 20260506071024 | 20 | 207 | 9.7 | 27.4 | 0.00 | 0.00 | 0.00 | 57 | 1011.9 |